Change the Weather History Date:

Tuesday, August 6, 2013

  Actual Average Record
Temperature  
Mean Temperature 63 °F 64 °F  
Max Temperature 76 °F 81 °F 89 °F (1981)
Min Temperature 50 °F 47 °F 35 °F (1996)
Degree Days  
Heating Degree Days 2 2  
Month to date heating degree days 3 9  
Since 1 June heating degree days 133 222  
Since 1 July heating degree days 31 54  
Cooling Degree Days 0 1  
Month to date cooling degree days 8 6  
Year to date cooling degree days 73 44  
Since 1 June cooling degree days 73 44  
Growing Degree Days 12 (Base 50)    
Moisture  
Dew Point 52 °F    
Average Humidity 72    
Maximum Humidity 100    
Minimum Humidity 44    
Precipitation  
Precipitation 0.04 in 0.04 in 0.40 in (1936)
Month to date precipitation 1.35 0.24  
Year to date precipitation 3.76 3.92  
Snow  
Snow 0.00 in 0.00 in 0.00 in (2002)
Month to date snowfall 0.0 0.0  
Since 1 June snowfall 0.0 0.0  
Since 1 July snowfall 0.0 0.0  
Snow Depth 0.00 in    
Sea Level Pressure  
Sea Level Pressure 30.04 in    
Wind  
Wind Speed 7 mph (SW)    
Max Wind Speed 21 mph    
Max Gust Speed 25 mph    
Visibility 10 miles    
Events Rain    
T = Trace of Precipitation, MM = Missing Value Source: NWS Daily Summary

Daily Weather History Graph

Daily Weather History Graph

Search for Another Location

Airport or City:

Trip Planner

Search our weather history database for the weather conditions in past years. The results will help you decide how hot, cold, wet, or windy it might be!

Date:

Astronomy

Aug. 06, 2013 Rise Set
Actual Time 6:12 AM MDT 8:05 PM MDT
Civil Twilight 5:43 AM MDT 8:34 PM MDT
Nautical Twilight 5:09 AM MDT 9:08 PM MDT
Astronomical Twilight 4:31 AM MDT 9:45 PM MDT
Moon 6:04 AM MDT (8/6) 7:44 PM MDT (8/6)
Length of Visible Light 14h 50m
Length of Day
13h 53m
Waning Crescent, 0% of the Moon is Illuminated
Aug 6
Waning Crescent
Aug 6
New
Aug 14
First Quarter
Aug 20
Full
Aug 28
Last Quarter

Hourly Weather History & Observations

Time (MDT) Temp. Dew Point Humidity Pressure Visibility Wind Dir Wind Speed Gust Speed Precip Events Conditions
12:52 AM 55.9 °F 54.0 °F 93% 30.07 in 7.0 mi SE 9.2 mph - 0.04 in Rain Light Rain
1:52 AM 55.9 °F 54.0 °F 93% 30.02 in 10.0 mi NNE 8.1 mph - 0.01 in   Overcast
2:52 AM 55.9 °F 52.0 °F 87% 30.01 in 10.0 mi ESE 6.9 mph - N/A   Mostly Cloudy
3:52 AM 54.0 °F 52.0 °F 93% 30.02 in 10.0 mi WNW 5.8 mph - N/A   Clear
4:52 AM 51.1 °F 51.1 °F 100% 30.04 in 10.0 mi Calm Calm - N/A   Partly Cloudy
5:52 AM 51.1 °F 48.9 °F 92% 30.06 in 10.0 mi Calm Calm - N/A   Clear
6:52 AM 52.0 °F 51.1 °F 97% 30.07 in 9.0 mi ESE 3.5 mph - N/A   Clear
7:52 AM 55.0 °F 52.0 °F 89% 30.08 in 10.0 mi NNE 6.9 mph - N/A   Clear
8:52 AM 57.0 °F 54.0 °F 89% 30.07 in 10.0 mi NNE 8.1 mph - N/A   Scattered Clouds
9:52 AM 59.0 °F 53.1 °F 81% 30.07 in 10.0 mi SE 5.8 mph - N/A   Overcast
10:52 AM 64.0 °F 53.1 °F 67% 30.05 in 10.0 mi SSW 3.5 mph - N/A   Mostly Cloudy
11:52 AM 68.0 °F 52.0 °F 56% 30.03 in 10.0 mi Variable 3.5 mph - N/A   Clear
12:52 PM 71.1 °F 52.0 °F 51% 30.01 in 10.0 mi SW 5.8 mph - N/A   Clear
1:52 PM 69.1 °F 53.1 °F 57% 29.99 in 10.0 mi West 10.4 mph - 0.00 in Rain Light Rain
2:52 PM 73.9 °F 46.0 °F 37% 29.96 in 10.0 mi Variable 4.6 mph - 0.00 in   Scattered Clouds
3:52 PM 73.9 °F 53.1 °F 48% 29.95 in 10.0 mi South 15.0 mph 24.2 mph N/A   Partly Cloudy
4:52 PM 70.0 °F 46.9 °F 44% 29.99 in 10.0 mi SSW 13.8 mph - N/A   Partly Cloudy
5:52 PM 64.9 °F 50.0 °F 58% 30.02 in 10.0 mi West 18.4 mph - 0.00 in   Overcast
6:52 PM 64.9 °F 50.0 °F 58% 30.01 in 10.0 mi NW 10.4 mph - 0.00 in   Overcast
7:52 PM 62.1 °F 53.1 °F 72% 30.02 in 10.0 mi WNW 3.5 mph - 0.00 in   Overcast
8:52 PM 61.0 °F 55.0 °F 81% 30.06 in 10.0 mi West 5.8 mph - 0.00 in   Overcast
9:52 PM 57.9 °F 53.1 °F 84% 30.09 in 10.0 mi SW 12.7 mph - 0.01 in Rain Light Rain
10:52 PM 55.9 °F 54.0 °F 93% 30.09 in 10.0 mi SW 4.6 mph - 0.00 in Rain Light Rain
11:52 PM 55.9 °F 53.1 °F 90% 30.06 in 10.0 mi Calm Calm - 0.02 in   Overcast